Location: Amherst
(42.5000°N, 72.5000°W)
Time: 05:46:17
(UTC-04:00)

ISS - Pass Details

Date: 15 July 2018
Orbit: 402 x 408 km, 51.6° (Epoch: 21 July)

Event Time Altitude Azimuth Distance (km) Brightness Sun altitude
Exits shadow 02:00:28 18° 318° (NW) 1,070 -1.4 -24.3°
Maximum altitude 02:01:32 21° 345° (NNW) 971 -1.3 -24.2°
Drops below altitude 10° 02:04:09 10° 38° (NE) 1,472 -0.1 -24.1°
Sets 02:06:35 0° 55° (NE) 2,335 0.8 -23.9°
